Location: Newark
(44.3867°N, 6.6531°E)
Time: 10:34:12
(UTC+00:00)

Envisat - Pass Details

Date: 30 January 2020
Orbit: 764 x 766 km, 98.1° (Epoch: 19 February)

Event Time Altitude Azimuth Distance (km) Brightness Sun altitude
Rises 04:47:02 0° 33° (NNE) 3,240 6.7 -22.9°
Reaches altitude 10° 04:50:52 10° 63° (ENE) 2,307 6.3 -22.2°
Maximum altitude 04:52:58 12° 88° (E) 2,133 6.4 -21.8°
Drops below altitude 10° 04:55:04 10° 112° (ESE) 2,299 6.5 -21.4°
Sets 04:58:51 0° 142° (SE) 3,218 6.9 -20.8°
